HK6REC-22 Weather Reports


time (UTC)temp
C
wind
direction
speed
KPH
gust
KPH
rain 1hr
cm
rain 24hr
cm
rain mn
cm
humidity
%
barometer
mb
20260507133615 20 119 1.6 0.0 0.00 0.00 0.00 84 1016.0
20260507130614 20 123 1.6 1.6 0.00 0.00 0.00 81 1016.0
20260507123613 16 123 1.6 1.6 0.00 0.00 0.00 88 1015.0
20260507120612 16 84 1.6 1.6 0.00 0.00 0.00 88 1015.0
20260507113611 16 49 3.2 4.8 0.00 0.00 0.00 88 1015.0
20260507110610 16 56 1.6 3.2 0.00 0.00 0.00 82 1016.0
20260507103609 16 56 1.6 3.2 0.00 0.00 0.00 88 1015.0
20260507100608 16 79 1.6 1.6 0.00 0.00 0.00 82 1016.0
20260507093607 16 79 1.6 1.6 0.00 0.00 0.00 88 1014.0
20260507090606 17 58 1.6 1.6 0.00 0.00 0.00 81 1015.0
20260507083605 17 58 1.6 1.6 0.00 0.00 0.00 88 1014.0
20260507080604 17 30 1.6 1.6 0.00 0.00 0.00 83 1015.0
20260507073603 17 30 1.6 1.6 0.00 0.00 0.00 88 1014.0
20260507070602 17 10 1.6 1.6 0.00 0.00 0.00 83 1015.0
20260507063601 17 10 1.6 1.6 0.00 0.00 0.00 88 1014.0
20260507060600 17 337 1.6 1.6 0.00 0.00 0.00 89 1015.0
20260507053559 17 332 1.6 1.6 0.00 0.00 0.00 88 1015.0
20260507050558 17 333 1.6 1.6 0.00 0.00 0.00 82 1016.0
20260507043557 17 333 1.6 1.6 0.00 0.00 0.00 88 1016.0
20260507040556 17 310 1.6 1.6 0.00 0.00 0.00 81 1016.0
20260507033555 17 310 1.6 1.6 0.00 0.00 0.00 87 1015.0
20260507030553 18 296 3.2 3.2 0.00 0.00 0.00 82 1016.0
20260507023552 18 296 3.2 3.2 0.00 0.00 0.00 87 1015.0
20260507020551 18 293 4.8 4.8 0.00 0.00 0.00 81 1015.0
20260507013550 18 293 4.8 4.8 0.00 0.00 0.00 87 1014.0
20260507010549 19 295 6.4 6.4 0.00 0.00 0.00 80 1014.0
20260507003548 20 295 6.4 6.4 0.00 0.00 0.00 85 1013.0
20260507000547 21 259 4.8 8.0 0.00 0.00 0.00 79 1013.0
20260506233546 23 259 4.8 8.0 0.00 0.00 0.00 85 1012.0
20260506230545 23 282 6.4 6.4 0.00 0.00 0.00 77 1011.0
20260506223544 23 282 6.4 6.4 0.00 0.00 0.00 82 1010.0
20260506220543 24 285 6.4 6.4 0.00 0.00 0.00 76 1010.0
20260506213542 24 285 6.4 6.4 0.00 0.00 0.00 79 1009.0
20260506210541 25 275 8.0 11.3 0.00 0.00 0.00 75 1009.0
20260506203540 25 275 8.0 11.3 0.00 0.00 0.00 77 1009.0
20260506200539 25 243 8.0 8.0 0.00 0.00 0.00 72 1009.0
20260506193538 31 243 8.0 8.0 0.00 0.00 0.00 71 1009.0
20260506190537 31 220 6.4 6.4 0.00 0.00 0.00 72 1010.0
20260506183536 28 220 6.4 6.4 0.00 0.00 0.00 67 1009.0
20260506180535 28 200 4.8 4.8 0.00 0.00 0.00 75 1011.0
20260506173534 28 195 4.8 4.8 0.00 0.00 0.00 70 1011.0
20260506170533 25 174 4.8 4.8 0.00 0.00 0.00 78 1013.0
20260506163532 25 174 4.8 4.8 0.00 0.00 0.00 73 1012.0
20260506160531 27 188 1.6 3.2 0.00 0.00 0.00 75 1014.0
20260506153530 22 188 1.6 3.2 0.00 0.00 0.00 79 1014.0
20260506150529 23 118 0.0 0.0 0.00 0.00 0.00 86 1015.0
20260506143528 23 118 0.0 0.0 0.00 0.00 0.00 85 1015.0
20260506140527 25 98 1.6 1.6 0.00 0.00 0.00 87 1017.0